Regional Weather Roundup
Issued by NWS Nashville, TN

Home | Current Version | Previous Version | Text Only | Print | Product List | Glossary On
Versions: 1 2 3 4 5 6 7 8 9 10 11 12 13 14 15 16 17 18 19 20 21 22 23 24 25 26 27 28 29 30 31 32 33 34 35 36 37 38 39 40 41 42 43 44 45 46 47 48 49 50
779
ASUS44 KOHX 211710
RWROHX
MIDDLE TENNESSEE HOURLY WEATHER ROUNDUP
NATIONAL WEATHER SERVICE NASHVILLE TN
1100 AM CST TUE FEB 21 2017

NOTE: "FAIR" INDICATES FEW OR NO CLOUDS BELOW 12,000 FEET WITH
NO SIGNIFICANT WEATHER AND/OR OBSTRUCTIONS TO VISIBILITY.

* THESE REPORTS ARE NOT UNDER NWS QUALITY CONTROL AND MAY NOT
  REPORT WEATHER SUCH AS PRECIPITATION AND FOG.


TNZ005>011-023>034-057-059-062>066-078-080-211800
...NORTHERN MIDDLE TENNESSEE...

CITY           SKY/WX    TMP DP  RH WIND       PRES   REMARKS
CLARKSVILLE    CLOUDY    62  53  72 SE13      29.93F
CROSSVILLE     SUNNY     65  47  52 S13G24    30.07S
GALLATIN       CLOUDY    68  52  56 S8        30.01F
DICKSON        CLOUDY    63  54  72 SE12      29.93F
LIVINGSTON     SUNNY     69  48  46 S6        30.03F
NASHVILLE      CLOUDY    68  51  54 S18G24    29.98F
PORTLAND       PTSUNNY   66  50  55 S9        29.98F
SMYRNA         CLOUDY    68  54  60 S14G21    29.99F
SPARTA         MOSUNNY   68  50  52 S15G31    30.01F
SPRINGFIELD    PTSUNNY   63  52  67 SE6       29.96F
WEST NASHVILLE CLOUDY    64  52  63 SE8       29.96F
$$
TNZ056-058-060-061-075>077-079-093>097-211800
...SOUTHERN MIDDLE TENNESSEE...

CITY           SKY/WX    TMP DP  RH WIND       PRES   REMARKS
COLUMBIA       PTSUNNY   66  59  77 S14       29.94S
FAYETTEVILLE   PTSUNNY   63  54  72 SE12      30.02S
MCMINNVILLE    PTSUNNY   68  52  56 S9        30.02S
SHELBYVILLE    CLOUDY    66  55  68 S15       30.01S
TULLAHOMA      PTSUNNY   64  50  59 S12       30.03R
WINCHESTER     CLOUDY    63  50  63 SE16      30.04S
$$


...KEY TO REMARKS...
VSB - VISIBILITY IN MILES
WCI - WIND CHILL INDEX
HX  - HEAT INDEX





USA.gov is the U.S. government's official web portal to all federal, state and local government web resources and services.